Content
SEND FEEDBACK

Daily
Averages
Monthly
Summary
United States of America

CONFLUENCE, PENNSYLVANIA


Home > North America > United States > Pennsylvania
Elevation: 1330 feet     Latitude: 39 50N     Longitude: 079 22W

WEATHER
 
SELECT A DAY
Number of Records: 200,234;   Date Range: 5/31/06 - 10/21/14
 
SHARE

PRINT THIS DATA

[ ← Previous Day ]
WEATHER ALMANAC - JANUARY 23, 2013
[ Next Day → ]
[ °C ]   °F
Weather ElementAverageHighLow
Temperature2.6 °F8.6 °F (11:10 am)-0.4 °F (6:10 am)
Dewpoint-2 °F-0.4 °F (1:55 am)-4 °F (12:30 am)
Humidity82.1 %92 % (1:55 am)57 % (11:40 am)
Barometer30.03 in30.06 in (10:05 am)30.01 in (12:30 am)
Wind Speed11.3 mph13.8 mph (12:50 am)
Wind Gust24.2 mph (9:25 am)
Weather ElementAverage
Visibility5.6 mi
Wind DirectionWNW (276.9 °)

Weather ElementTotal
Precipitation---
Heating Degree Days60.9 (Base 65)
Averaged from 29 records on January 23, 2013
WEATHER CONDITIONS BREAKOUT
WIND DIRECTION BREAKOUT
WEATHER BY HOUR - JANUARY 23, 2013
[ °C ]   °F
Local TimeTemperatureDewpointHumidityBarometerVisibilityWind DirectionWind SpeedGust SpeedPrecipitationEventsConditions
12:30 AM3.2 °F-4.0 °F72 %30.01 in10.0 miWest (280°)12.7 mph20.7 mphScattered Clouds
12:50 AM3.2 °F-4.0 °F72 %30.01 in10.0 miWest (280°)13.8 mph21.9 mphMostly Cloudy
1:15 AM3.2 °F-4.0 °F72 %30.01 in5.0 miWest (280°)12.7 mph17.3 mphHaze
1:35 AM1.4 °F-2.2 °F85 %30.01 in2.5 miWest (280°)10.4 mph19.6 mphOvercast
1:55 AM1.4 °F-0.4 °F92 %30.02 in2.0 miWest (280°)11.5 mphOvercast
2:15 AM1.4 °F-0.4 °F92 %30.03 in2.5 miWest (280°)12.7 mph20.7 mphOvercast
2:40 AM1.4 °F-0.4 °F92 %30.02 in1.8 miWest (280°)9.2 mph18.4 mphOvercast
3:00 AM1.4 °F-2.2 °F85 %30.03 in2.5 miWNW (290°)11.5 mph19.6 mphOvercast
3:20 AM1.4 °F-2.2 °F85 %30.03 in1.8 miWest (270°)10.4 mphOvercast
4:05 AM1.4 °F-0.4 °F92 %30.03 in1.5 miWest (280°)12.7 mph20.7 mphOvercast
4:25 AM1.4 °F-0.4 °F92 %30.03 in1.8 miWest (280°)9.2 mph19.6 mphOvercast
4:45 AM1.4 °F-2.2 °F85 %30.03 in2.5 miWest (280°)11.5 mph18.4 mphOvercast
5:10 AM1.4 °F-2.2 °F85 %30.02 in2.0 miWest (280°)11.5 mph16.1 mphOvercast
5:30 AM1.4 °F-2.2 °F85 %30.02 in2.5 miWest (270°)9.2 mph16.1 mphOvercast
5:50 AM1.4 °F-2.2 °F85 %30.03 in2.0 miWest (280°)10.4 mph18.4 mphOvercast
6:10 AM-0.4 °F-2.2 °F92 %30.04 in5.0 miWest (280°)12.7 mph21.9 mphMostly Cloudy
6:35 AM1.4 °F-0.4 °F92 %30.04 in3.0 miWest (280°)9.2 mph18.4 mphOvercast
6:55 AM-0.4 °F-2.2 °F92 %30.04 in1.8 miWest (280°)9.2 mphOvercast
8:00 AM-0.4 °F-2.2 °F92 %30.04 in10.0 miWest (270°)9.2 mphMostly Cloudy
8:20 AM1.4 °F-0.4 °F92 %30.04 in10.0 miWest (270°)9.2 mph16.1 mphMostly Cloudy
8:40 AM1.4 °F-0.4 °F92 %30.05 in10.0 miWest (280°)10.4 mph20.7 mphScattered Clouds
9:05 AM1.4 °F-0.4 °F92 %30.05 in10.0 miWest (270°)13.8 mph19.6 mphClear
9:25 AM3.2 °F-0.4 °F85 %30.05 in7.0 miWest (260°)11.5 mph24.2 mphScattered Clouds
10:05 AM5.0 °F-2.2 °F72 %30.06 in10.0 miWest (280°)13.8 mph20.7 mphScattered Clouds
10:30 AM5.0 °F-4.0 °F66 %30.06 in10.0 miWest (280°)9.2 mph21.9 mphClear
10:50 AM6.8 °F-4.0 °F61 %30.05 in10.0 miWest (270°)12.7 mph18.4 mphMostly Cloudy
11:10 AM8.6 °F-2.2 °F62 %30.05 in10.0 miWest (270°)10.4 mph18.4 mphOvercast
11:30 AM8.6 °F-2.2 °F62 %30.04 inWest (270°)13.8 mph
11:40 AM8.6 °F-4.0 °F57 %30.04 in10.0 miWest (280°)13.8 mph20.7 mph
Hourly data recorded from K2G4, located miles away from Confluence, Pennsylvania







STORIES FROM OUR PARTNERS